DW2074 Weather Reports


Display with metric or nautical units.
time (UTC)temp
F
wind
direction
speed
MPH
gust
MPH
rain 1hr
in
rain 24hr
in
rain mn
in
humidity
%
barometer
mb
20260509223807 58 147 2.0 2.0 0.00 0.69 0.69 84 1008.5
20260509223304 58 147 2.0 2.0 0.00 0.69 0.69 84 1008.5
20260509222801 58 136 0.0 1.0 0.00 0.69 0.69 84 1008.6
20260509222256 58 136 0.0 1.0 0.00 0.69 0.69 84 1008.6
20260509221752 58 155 0.0 0.0 0.00 0.69 0.69 86 1008.7
20260509221249 58 155 0.0 0.0 0.00 0.69 0.69 86 1008.7
20260509220745 58 138 1.0 1.0 0.00 0.69 0.69 86 1008.7
20260509220241 58 138 1.0 1.0 0.00 0.69 0.69 86 1008.7
20260509215736 57 146 0.0 0.0 0.00 0.69 0.69 88 1008.7
20260509215234 57 146 0.0 0.0 0.00 0.69 0.69 88 1008.7
20260509214731 57 142 0.0 0.0 0.00 0.69 0.69 92 1008.9
20260509214228 57 142 0.0 0.0 0.00 0.69 0.69 92 1008.9
20260509213725 57 148 1.0 1.0 0.00 0.69 0.69 93 1009.2
20260509213220 57 148 1.0 1.0 0.00 0.69 0.69 93 1009.2
20260509212718 56 166 0.0 0.0 0.00 0.69 0.69 93 1009.1
20260509212215 56 131 0.0 0.0 0.00 0.69 0.69 96 1009.3
20260509211711 56 131 0.0 0.0 0.00 0.69 0.69 96 1009.3
20260509211207 55 132 0.0 0.0 0.00 0.69 0.69 95 1009.3
20260509210704 55 132 0.0 0.0 0.00 0.69 0.69 95 1009.3
20260509210201 55 140 0.0 0.0 0.00 0.69 0.69 96 1009.5
20260509205701 55 140 0.0 0.0 0.00 0.69 0.69 96 1009.5
20260509205201 55 129 1.0 1.0 0.00 0.69 0.69 96 1009.6
20260509204657 55 129 1.0 1.0 0.00 0.69 0.69 96 1009.6
20260509204154 55 122 0.0 0.0 0.00 0.69 0.69 96 1009.7
20260509203650 55 122 0.0 0.0 0.00 0.69 0.69 96 1009.7
20260509203148 55 135 0.0 0.0 0.00 0.69 0.69 98 1009.6
20260509202643 55 135 0.0 0.0 0.00 0.69 0.69 98 1009.6
20260509202138 55 141 1.0 1.0 0.07 0.69 0.69 98 1009.5
20260509201634 55 141 1.0 1.0 0.07 0.69 0.69 98 1009.5
20260509201131 55 158 0.0 0.0 0.12 0.68 0.68 98 1009.5
20260509200627 55 158 0.0 0.0 0.12 0.68 0.68 98 1009.5
20260509200123 55 146 1.0 1.0 0.24 0.66 0.66 99 1009.5
20260509195619 55 146 1.0 1.0 0.24 0.66 0.66 99 1009.5
20260509195113 54 151 0.0 0.0 0.35 0.62 0.62 98 1009.6
20260509194612 54 151 0.0 0.0 0.35 0.62 0.62 98 1009.6
20260509194111 54 156 0.0 0.0 0.19 0.56 0.56 98 1009.9
20260509193606 54 156 0.0 0.0 0.19 0.56 0.56 98 1009.9
20260509193102 53 140 0.0 0.0 0.24 0.53 0.53 98 1010.2
20260509192559 53 140 0.0 0.0 0.24 0.53 0.53 98 1010.2
20260509192054 53 136 0.0 0.0 0.47 0.49 0.49 97 1010.5
20260509191555 53 136 0.0 0.0 0.47 0.49 0.49 97 1010.5
20260509191051 53 161 0.0 0.0 0.42 0.42 0.42 97 1010.5
20260509190548 53 161 0.0 0.0 0.42 0.42 0.42 97 1010.5
20260509190046 53 151 0.0 0.0 0.35 0.35 0.35 97 1010.7
20260509185543 53 151 0.0 0.0 0.35 0.35 0.35 97 1010.7
20260509185039 53 148 0.0 0.0 0.24 0.29 0.29 96 1010.6
20260509184537 53 148 0.0 0.0 0.24 0.29 0.29 96 1010.6
20260509184033 53 137 0.0 0.0 0.24 0.25 0.25 95 1010.5
20260509183529 53 137 0.0 0.0 0.24 0.25 0.25 95 1010.5
20260509183025 53 162 0.0 0.0 0.19 0.21 0.21 95 1010.5
20260509182521 53 162 0.0 0.0 0.19 0.21 0.21 95 1010.5
20260509182019 53 135 0.0 0.0 0.19 0.19 0.19 95 1010.5
20260509181517 53 135 0.0 0.0 0.19 0.19 0.19 95 1010.5
20260509181014 53 139 0.0 0.0 0.19 0.16 0.16 95 1010.6
20260509180509 53 139 0.0 0.0 0.19 0.16 0.16 95 1010.6
20260509180008 53 122 0.0 0.0 0.19 0.14 0.14 95 1010.5
20260509175502 53 122 0.0 0.0 0.19 0.14 0.14 95 1010.5
20260509174959 53 78 1.0 1.0 0.24 0.11 0.11 96 1010.3
20260509174455 53 78 1.0 1.0 0.24 0.11 0.11 96 1010.3
20260509173950 53 165 0.0 0.0 0.24 0.07 0.07 95 1010.3
20260509173451 53 165 0.0 0.0 0.24 0.07 0.07 95 1010.3
20260509172947 54 152 0.0 0.0 0.12 0.03 0.03 95 1010.7
20260509172445 54 152 0.0 0.0 0.12 0.03 0.03 95 1010.7
20260509171940 54 161 0.0 1.0 0.07 0.01 0.01 93 1010.6
20260509171436 54 161 0.0 1.0 0.07 0.01 0.01 93 1010.6
20260509170933 55 157 1.0 1.0 0.00 0.00 0.00 92 1010.5
20260509170428 55 157 1.0 1.0 0.00 0.00 0.00 92 1010.5
20260509165924 55 143 0.0 0.0 0.00 0.00 0.00 90 1010.3
20260509165418 55 143 0.0 0.0 0.00 0.00 0.00 90 1010.3
20260509164914 55 132 0.0 0.0 0.00 0.00 0.00 89 1010.5
20260509164411 55 132 0.0 0.0 0.00 0.00 0.00 89 1010.5
20260509163907 55 134 0.0 0.0 0.00 0.00 0.00 90 1010.5
20260509163404 55 134 0.0 0.0 0.00 0.00 0.00 90 1010.5
20260509162903 55 124 0.0 0.0 0.00 0.00 0.00 90 1010.7
20260509162402 55 124 0.0 0.0 0.00 0.00 0.00 90 1010.7
20260509161857 55 107 1.0 1.0 0.00 0.00 0.00 89 1010.6
20260509161354 55 107 1.0 1.0 0.00 0.00 0.00 89 1010.6
20260509160850 55 151 0.0 0.0 0.00 0.00 0.00 89 1010.4
20260509160345 55 151 0.0 0.0 0.00 0.00 0.00 89 1010.4
20260509155841 55 108 0.0 1.0 0.00 0.00 0.00 89 1010.6
20260509155338 55 108 0.0 1.0 0.00 0.00 0.00 89 1010.6
20260509154834 55 153 0.0 0.0 0.00 0.00 0.00 92 1010.6
20260509154330 55 153 0.0 0.0 0.00 0.00 0.00 92 1010.6
20260509153827 55 118 0.0 0.0 0.00 0.00 0.00 93 1010.9
20260509153324 55 118 0.0 0.0 0.00 0.00 0.00 93 1010.9
20260509152821 54 120 0.0 0.0 0.00 0.00 0.00 93 1010.7
20260509152317 54 120 0.0 0.0 0.00 0.00 0.00 93 1010.7
20260509151815 54 120 0.0 0.0 0.00 0.00 0.00 96 1011.0
20260509151310 54 120 0.0 0.0 0.00 0.00 0.00 96 1011.0
20260509150809 54 119 0.0 0.0 0.00 0.00 0.00 97 1010.9
20260509150307 54 119 0.0 0.0 0.00 0.00 0.00 97 1010.9
20260509145803 53 119 0.0 0.0 0.00 0.00 0.00 96 1010.9
20260509145306 53 119 0.0 0.0 0.00 0.00 0.00 96 1010.9
20260509144800 53 119 0.0 0.0 0.00 0.00 0.00 96 1010.7
20260509144257 53 119 0.0 0.0 0.00 0.00 0.00 96 1010.7
20260509143754 52 119 0.0 0.0 0.00 0.00 0.00 95 1011.4
20260509143252 52 119 0.0 0.0 0.00 0.00 0.00 95 1011.4
20260509142747 53 119 0.0 0.0 0.00 0.00 0.00 94 1011.4
20260509142243 53 119 0.0 0.0 0.00 0.00 0.00 94 1011.4
20260509141739 53 117 0.0 0.0 0.00 0.00 0.00 95 1011.1
20260509141237 53 117 0.0 0.0 0.00 0.00 0.00 95 1011.1
20260509140733 53 117 0.0 0.0 0.00 0.00 0.00 93 1011.2
20260509140231 53 117 0.0 0.0 0.00 0.00 0.00 93 1011.2
20260509135728 53 117 0.0 0.0 0.00 0.00 0.00 94 1010.9
20260509135226 53 117 0.0 0.0 0.00 0.00 0.00 94 1010.9
20260509134722 53 117 0.0 0.0 0.00 0.00 0.00 96 1011.0
20260509134220 53 117 0.0 0.0 0.00 0.00 0.00 96 1011.0
20260509133717 53 117 0.0 0.0 0.00 0.00 0.00 97 1010.6
20260509133214 53 117 0.0 0.0 0.00 0.00 0.00 97 1010.6
20260509132712 52 117 0.0 0.0 0.00 0.00 0.00 98 1010.7
20260509132211 52 117 0.0 0.0 0.00 0.00 0.00 98 1010.7
20260509131707 52 117 0.0 0.0 0.00 0.00 0.00 98 1010.7
20260509131203 52 117 0.0 0.0 0.00 0.00 0.00 98 1010.7
20260509130659 51 117 0.0 0.0 0.00 0.00 0.00 98 1010.4
20260509130155 51 117 0.0 0.0 0.00 0.00 0.00 98 1010.4
20260509125652 51 117 0.0 0.0 0.00 0.00 0.00 98 1010.6
20260509125149 51 117 0.0 0.0 0.00 0.00 0.00 98 1010.6
20260509124645 51 118 0.0 0.0 0.00 0.00 0.00 99 1010.6
20260509124142 51 118 0.0 0.0 0.00 0.00 0.00 99 1010.6
20260509123640 51 118 0.0 0.0 0.00 0.00 0.00 99 1010.6
20260509123137 51 118 0.0 0.0 0.00 0.00 0.00 99 1010.6
20260509122633 51 118 0.0 0.0 0.00 0.00 0.00 99 1010.7
20260509122130 51 118 0.0 0.0 0.00 0.00 0.00 99 1010.7
20260509121626 51 118 0.0 0.0 0.00 0.00 0.00 99 1010.6
20260509121124 51 118 0.0 0.0 0.00 0.00 0.00 99 1010.6
20260509120622 51 118 0.0 0.0 0.00 0.00 0.00 99 1010.5
20260509120120 50 118 0.0 0.0 0.00 0.00 0.00 99 1010.7
20260509115617 50 118 0.0 0.0 0.00 0.00 0.00 99 1010.7
20260509115115 50 118 0.0 0.0 0.00 0.00 0.00 99 1011.0
20260509114613 50 118 0.0 0.0 0.00 0.00 0.00 99 1011.0
20260509114112 50 118 0.0 0.0 0.00 0.00 0.00 99 1011.1
20260509113609 50 118 0.0 0.0 0.00 0.00 0.00 99 1011.1
20260509113107 50 118 0.0 0.0 0.00 0.00 0.00 99 1011.1
20260509112602 50 118 0.0 0.0 0.00 0.00 0.00 99 1011.1
20260509112100 50 118 0.0 0.0 0.00 0.00 0.00 99 1011.0
20260509111557 50 118 0.0 0.0 0.00 0.00 0.00 99 1011.0
20260509111054 50 118 0.0 0.0 0.00 0.00 0.00 99 1011.4
20260509110551 50 118 0.0 0.0 0.00 0.00 0.00 99 1011.4
20260509110048 50 118 0.0 0.0 0.00 0.00 0.00 99 1011.3
20260509105546 50 118 0.0 0.0 0.00 0.00 0.00 99 1011.3
20260509105044 50 118 0.0 0.0 0.00 0.00 0.00 99 1010.9
20260509104540 50 118 0.0 0.0 0.00 0.00 0.00 99 1010.9
20260509104037 50 118 0.0 0.0 0.00 0.00 0.00 99 1011.2
20260509103535 50 118 0.0 0.0 0.00 0.00 0.00 99 1011.2
20260509103033 49 118 0.0 0.0 0.00 0.00 0.00 99 1011.1
20260509102530 49 118 0.0 0.0 0.00 0.00 0.00 99 1011.1
20260509102027 49 118 0.0 0.0 0.00 0.00 0.00 99 1011.2
20260509101523 49 118 0.0 0.0 0.00 0.00 0.00 99 1011.2
20260509101020 49 118 0.0 0.0 0.00 0.00 0.00 99 1011.0
20260509100517 49 118 0.0 0.0 0.00 0.00 0.00 99 1011.0
20260509100015 50 118 0.0 0.0 0.00 0.00 0.00 99 1011.3
20260509095511 50 118 0.0 0.0 0.00 0.00 0.00 99 1011.3
20260509095008 49 118 0.0 0.0 0.00 0.00 0.00 99 1010.9
20260509094504 49 118 0.0 0.0 0.00 0.00 0.00 99 1010.9
20260509094002 49 118 0.0 0.0 0.00 0.00 0.00 99 1010.9
20260509093500 49 118 0.0 0.0 0.00 0.00 0.00 99 1010.9
20260509092957 49 118 0.0 0.0 0.00 0.00 0.00 99 1010.9
20260509092455 49 118 0.0 0.0 0.00 0.00 0.00 99 1010.9
20260509091953 49 118 0.0 0.0 0.00 0.00 0.00 98 1011.2
20260509091450 49 118 0.0 0.0 0.00 0.00 0.00 98 1011.2
20260509090947 49 118 0.0 0.0 0.00 0.00 0.00 98 1011.2
20260509090444 49 118 0.0 0.0 0.00 0.00 0.00 98 1011.2
20260509085942 50 118 0.0 0.0 0.00 0.00 0.00 98 1011.5
20260509085438 50 118 0.0 0.0 0.00 0.00 0.00 98 1011.5
20260509084935 49 118 0.0 0.0 0.00 0.00 0.00 99 1011.8
20260509084432 49 118 0.0 0.0 0.00 0.00 0.00 99 1011.8
20260509083929 49 118 0.0 0.0 0.00 0.00 0.00 98 1012.0
20260509083426 49 118 0.0 0.0 0.00 0.00 0.00 98 1012.0
20260509082923 50 118 0.0 0.0 0.00 0.00 0.00 98 1012.1
20260509082420 50 118 0.0 0.0 0.00 0.00 0.00 98 1012.1
20260509081917 50 118 0.0 0.0 0.00 0.00 0.00 98 1012.0
20260509081415 50 118 0.0 0.0 0.00 0.00 0.00 98 1012.0
20260509080912 49 118 0.0 0.0 0.00 0.00 0.00 98 1011.9
20260509080410 49 118 0.0 0.0 0.00 0.00 0.00 98 1011.9
20260509075908 49 118 0.0 0.0 0.00 0.00 0.00 98 1011.9
20260509075404 49 118 0.0 0.0 0.00 0.00 0.00 98 1011.9
20260509074902 49 118 0.0 0.0 0.00 0.00 0.00 98 1011.8
20260509074359 49 118 0.0 0.0 0.00 0.00 0.00 98 1011.8
20260509073855 49 118 0.0 0.0 0.00 0.00 0.00 98 1012.1
20260509073352 49 118 0.0 0.0 0.00 0.00 0.00 98 1012.1
20260509072848 49 118 0.0 0.0 0.00 0.00 0.00 98 1012.2
20260509072345 49 118 0.0 0.0 0.00 0.00 0.00 98 1012.2
20260509071842 49 118 0.0 0.0 0.00 0.00 0.00 98 1012.1
20260509071338 49 118 0.0 0.0 0.00 0.00 0.00 98 1012.1
20260509070836 49 118 0.0 0.0 0.00 0.00 0.00 98 1011.8
20260509070333 49 118 0.0 0.0 0.00 0.00 0.00 98 1011.8
20260509065829 49 118 0.0 0.0 0.00 0.00 0.00 98 1011.8
20260509065325 49 118 0.0 0.0 0.00 0.00 0.00 98 1011.8
20260509064821 50 118 0.0 0.0 0.00 0.00 0.00 98 1012.0
20260509064319 50 118 0.0 0.0 0.00 0.00 0.00 98 1012.0
20260509063816 50 118 0.0 0.0 0.00 0.00 0.00 97 1012.1
20260509063312 50 118 0.0 0.0 0.00 0.00 0.00 97 1012.1
20260509062810 49 118 0.0 0.0 0.00 0.00 0.00 97 1012.4
20260509062307 49 118 0.0 0.0 0.00 0.00 0.00 97 1012.4
20260509061804 49 118 0.0 0.0 0.00 0.00 0.00 97 1012.6
20260509061302 49 118 0.0 0.0 0.00 0.00 0.00 97 1012.6
20260509060758 50 118 0.0 0.0 0.00 0.00 0.00 97 1012.7
20260509060255 50 118 0.0 0.0 0.00 0.00 0.00 97 1012.7
20260509055751 49 118 0.0 0.0 0.00 0.00 0.00 97 1012.9
20260509055247 49 118 0.0 0.0 0.00 0.00 0.00 97 1012.9
20260509054744 49 118 0.0 0.0 0.00 0.00 0.00 98 1013.0
20260509054240 49 118 0.0 0.0 0.00 0.00 0.00 98 1013.0
20260509053739 49 117 0.0 0.0 0.00 0.00 0.00 98 1012.7
20260509053235 49 117 0.0 0.0 0.00 0.00 0.00 98 1012.7
20260509052734 49 118 0.0 0.0 0.00 0.00 0.00 98 1012.3
20260509052231 49 118 0.0 0.0 0.00 0.00 0.00 98 1012.3
20260509051728 49 117 0.0 0.0 0.00 0.00 0.00 97 1012.0
20260509051226 49 117 0.0 0.0 0.00 0.00 0.00 97 1012.0
20260509050723 49 117 0.0 0.0 0.00 0.00 0.00 97 1012.0
20260509050219 49 117 0.0 0.0 0.00 0.00 0.00 97 1012.0
20260509045717 49 117 0.0 0.0 0.00 0.00 0.00 97 1012.0
20260509045214 49 117 0.0 0.0 0.00 0.00 0.00 97 1012.0
20260509044711 48 117 0.0 0.0 0.00 0.00 0.00 97 1012.1
20260509044209 48 117 0.0 0.0 0.00 0.00 0.00 97 1012.1
20260509043704 48 117 0.0 0.0 0.00 0.00 0.00 97 1012.3
20260509043200 48 117 0.0 0.0 0.00 0.00 0.00 97 1012.3
20260509042657 49 117 0.0 0.0 0.00 0.00 0.00 97 1012.4
20260509042153 49 117 0.0 0.0 0.00 0.00 0.00 97 1012.4
20260509041650 49 118 0.0 0.0 0.00 0.00 0.00 97 1012.6
20260509041147 49 118 0.0 0.0 0.00 0.00 0.00 97 1012.6
20260509040646 48 117 0.0 0.0 0.00 0.00 0.00 97 1012.3
20260509040142 48 117 0.0 0.0 0.00 0.00 0.00 97 1012.3
20260509035639 48 117 0.0 0.0 0.00 0.03 0.03 96 1012.3
20260509035136 48 117 0.0 0.0 0.00 0.03 0.03 96 1012.3
20260509034633 48 117 0.0 0.0 0.00 0.03 0.03 96 1012.4
20260509034130 48 117 0.0 0.0 0.00 0.03 0.03 96 1012.4
20260509033627 48 117 0.0 0.0 0.00 0.03 0.03 96 1012.4
20260509033124 48 117 0.0 0.0 0.00 0.03 0.03 96 1012.4
20260509032622 48 117 0.0 0.0 0.00 0.03 0.03 96 1012.5
20260509032118 48 117 0.0 0.0 0.00 0.03 0.03 96 1012.5
20260509031616 48 117 0.0 0.0 0.00 0.03 0.03 96 1012.8
20260509031113 48 117 0.0 0.0 0.00 0.03 0.03 96 1012.8
20260509030611 48 117 0.0 0.0 0.00 0.03 0.03 96 1012.8
20260509030108 48 117 0.0 0.0 0.00 0.03 0.03 96 1012.8
20260509025604 48 117 0.0 0.0 0.00 0.03 0.03 95 1012.7
20260509025100 48 117 0.0 0.0 0.00 0.03 0.03 95 1012.7
20260509024556 48 117 0.0 0.0 0.00 0.03 0.03 95 1012.7
20260509024052 48 117 0.0 0.0 0.00 0.03 0.03 95 1012.7
20260509023550 48 117 0.0 0.0 0.00 0.03 0.03 94 1012.3
20260509023046 48 117 0.0 0.0 0.00 0.03 0.03 94 1012.3
20260509022543 49 117 0.0 0.0 0.00 0.03 0.03 94 1012.3
20260509022041 49 117 0.0 0.0 0.00 0.03 0.03 94 1012.3
20260509021538 49 117 0.0 0.0 0.00 0.03 0.03 94 1012.5
20260509021035 49 117 0.0 0.0 0.00 0.03 0.03 94 1012.5
20260509020533 50 117 0.0 0.0 0.00 0.03 0.03 94 1012.6
20260509020029 50 117 0.0 0.0 0.00 0.03 0.03 94 1012.6
20260509015529 50 117 0.0 0.0 0.00 0.03 0.03 94 1012.5
20260509015025 50 117 0.0 0.0 0.00 0.03 0.03 94 1012.5
20260509014522 51 118 0.0 0.0 0.00 0.03 0.03 95 1012.3
20260509014018 51 118 0.0 0.0 0.00 0.03 0.03 95 1012.3
20260509013515 51 118 0.0 0.0 0.00 0.03 0.03 94 1012.4
20260509013011 51 117 0.0 0.0 0.00 0.03 0.03 94 1012.3
20260509012508 51 117 0.0 0.0 0.00 0.03 0.03 94 1012.3
20260509012005 51 117 0.0 0.0 0.00 0.03 0.03 94 1012.2
20260509011502 51 117 0.0 0.0 0.00 0.03 0.03 94 1012.2
20260509011000 51 117 0.0 0.0 0.00 0.03 0.03 94 1011.9
20260509010457 51 117 0.0 0.0 0.00 0.03 0.03 94 1011.9
20260509005954 51 117 0.0 0.0 0.00 0.03 0.03 94 1011.8
20260509005452 51 117 0.0 0.0 0.00 0.03 0.03 94 1011.8
20260509004951 51 117 0.0 0.0 0.00 0.03 0.03 93 1011.7
20260509004449 51 117 0.0 0.0 0.00 0.03 0.03 93 1011.7
20260509003946 51 117 0.0 0.0 0.00 0.03 0.03 93 1011.9
20260509003444 51 117 0.0 0.0 0.00 0.03 0.03 93 1011.9
20260509002941 51 117 0.0 0.0 0.00 0.03 0.03 92 1011.7
20260509002439 51 117 0.0 0.0 0.00 0.03 0.03 92 1011.7
20260509001936 51 117 0.0 0.0 0.00 0.03 0.03 92 1011.7
20260509001432 51 117 0.0 0.0 0.00 0.03 0.03 92 1011.7
20260509000929 51 117 0.0 0.0 0.00 0.03 0.03 91 1011.4
20260509000427 51 117 0.0 0.0 0.00 0.03 0.03 91 1011.4
20260508235922 52 117 0.0 0.0 0.00 0.03 0.03 90 1011.8
20260508235420 52 117 0.0 0.0 0.00 0.03 0.03 90 1011.8
20260508234917 52 117 0.0 0.0 0.00 0.03 0.03 87 1011.5
20260508234414 52 117 0.0 0.0 0.00 0.03 0.03 87 1011.5
20260508233912 53 117 0.0 0.0 0.00 0.03 0.03 84 1011.6
20260508233411 53 117 0.0 0.0 0.00 0.03 0.03 84 1011.6
20260508232908 54 117 0.0 0.0 0.00 0.03 0.03 79 1011.6
20260508232404 54 117 0.0 0.0 0.00 0.03 0.03 79 1011.6
20260508231902 55 117 0.0 0.0 0.00 0.03 0.03 74 1011.4
20260508231358 55 117 0.0 0.0 0.00 0.03 0.03 74 1011.4
20260508230855 56 117 0.0 0.0 0.00 0.03 0.03 76 1011.3
20260508230352 56 117 0.0 0.0 0.00 0.03 0.03 76 1011.3
20260508225849 56 117 0.0 0.0 0.00 0.03 0.03 66 1011.1
20260508225345 56 117 0.0 0.0 0.00 0.03 0.03 66 1011.1
20260508224844 56 117 0.0 0.0 0.00 0.03 0.03 66 1011.1
20260508224341 56 117 0.0 0.0 0.00 0.03 0.03 66 1011.1